Hourly Weather Roundup
Issued by NWS Central Illinois

Home | Current Version | Previous Version | Text Only | Print | Product List | Glossary On
Versions: 1 2 3 4 5 6 7 8 9 10 11 12 13 14 15 16 17 18 19 20 21 22 23 24 25 26 27 28 29 30 31 32 33 34 35 36 37 38 39 40 41 42 43 44 45 46 47 48 49 50
000
NZUS43 KILX 211510
HWRILX

AREA WEATHER ROUNDUP
NATIONAL WEATHER SERVICE, LINCOLN IL
900 AM CST SUN DEC 21 2014


CITY           SKY/WX    TMP DP  RH WIND       PRES   REMARKS
BLOOMINGTON    PTSUNNY   33  31  93 S15       30.20F FOG     WCI  23
CHAMPAIGN      CLOUDY    32  27  81 S12       30.23F HAZE    WCI  23
DECATUR        CLOUDY    34  29  82 S10       30.23S HAZE    WCI  26
FLORA          SUNNY     32  28  85 SE6       30.26F FOG     WCI  26
GALESBURG      CLOUDY    36  34  93 S8        30.13F FOG     WCI  29
JACKSONVILLE   CLOUDY    40  34  80 S10       30.18S WCI  33
LACON          CLOUDY    35  30  84 S8        30.17S WCI  28
LAWRENCEVILLE  SUNNY     30  28  92 E7        30.28F FOG     WCI  23
LITCHFIELD     CLOUDY    35  30  82 SE9       30.21R WCI  27
$$


CITY           SKY/WX    TMP DP  RH WIND       PRES   REMARKS
LINCOLN        CLOUDY    37  33  85 S12       30.21S WCI  29
MACOMB         CLOUDY    37  35  93 SE10      30.16F FOG     WCI  29
MATTOON        CLOUDY    31  26  82 S8        30.24S WCI  23
MT CARMEL AP   SUNNY     32  30  93 E5        30.29R FOG     WCI  27
OLNEY-NOBLE AP SUNNY     30  28  93 SE6       30.27F FOG     WCI  24
PARIS          CLOUDY    31  29  92 SE8       30.27S FOG     WCI  23
PEORIA         CLOUDY    37  31  78 S10       30.18S HAZE    WCI  30
PONTIAC        CLOUDY    34  31  89 S14G20    30.20F FOG     WCI  24
RANTOUL        CLOUDY    32  29  87 SE12      30.24S FOG     WCI  23
ROBINSON       SUNNY     30  28  94 SE3       30.30R FOG
SPRINGFIELD    CLOUDY    38  31  76 SE13      30.20F WCI  30
TAYLORVILLE    CLOUDY    34  32  93 SE9       30.22S WCI  26
$$

...REGIONAL REPORTS...


CITY           SKY/WX    TMP DP  RH WIND       PRES   REMARKS
CHICAGO O`HARE CLOUDY    33  27  78 S12       30.19F WCI  24
KANKAKEE       CLOUDY    32  28  86 SE8       30.24S WCI  25
MOLINE         CLOUDY    37  33  85 S9        30.11F WCI  30
MOUNT VERNON   CLOUDY    34  25  69 SE3       30.26S
PITTSFIELD     CLOUDY    39  35  85 SE10      30.16S WCI  32
QUINCY         CLOUDY    39  34  82 SE8       30.12F WCI  33
ROCKFORD       CLOUDY    33  29  85 S10       30.17S FOG     WCI  25
$$


CITY           SKY/WX    TMP DP  RH WIND       PRES   REMARKS
BURLINGTON     LGT RAIN  39  35  86 S8        30.10F WCI  33
CEDAR RAPIDS   CLOUDY    37  35  92 S13       30.03S FOG     WCI  29
DES MOINES     CLOUDY    39  34  82 S18G26    29.96F WCI  30
KIRKSVILLE     CLOUDY    40  36  86 S9        30.07F WCI  34
OTTUMWA        CLOUDY    39  34  82 S14       30.03F WCI  31
ST LOUIS       CLOUDY    41  32  70 SE10      30.21R WCI  35
$$


CITY           SKY/WX    TMP DP  RH WIND       PRES   REMARKS
TERRE HAUTE    CLOUDY    31  27  85 SE7       30.29S WCI  24
EVANSVILLE     SUNNY     31  27  85 E5        30.29S FOG     WCI  26
INDIANAPOLIS   PTSUNNY   27  24  89 SE8       30.28S WCI  19
LAFAYETTE      CLOUDY    30  25  81 SE5       30.28R WCI  25
MADISON        CLOUDY    33  30  88 S15       30.10S FOG     WCI  23
MILWAUKEE      CLOUDY    33  27  78 S7        30.17S WCI  27
$$




USA.gov is the U.S. government's official web portal to all federal, state and local government web resources and services.